Weather Roundup
Issued by NWS Springfield, MO

Home | Current Version | Previous Version | Text Only | Print | Product List | Glossary On
Versions: 1 2 3 4 5 6 7 8 9 10 11 12 13 14 15 16 17 18 19 20 21 22 23 24 25 26 27 28 29 30 31 32 33 34 35 36 37 38 39 40 41 42 43 44 45 46 47 48 49 50
540
NZUS99 KSGF 240207
HRRSGF

HOURLY WEATHER
NATIONAL WEATHER SERVICE SPRINGFIELD MO
900 PM CDT SUN JUL 23 2017

......SGF CWA......

CITY           SKY/WX    TMP DP  RH WIND       PRES   REMARKS
SPRINGFIELD    CLOUDY    85  68  56 NW3       29.92R
JOPLIN         CLOUDY    84  73  69 CALM      29.92R HX  90
WEST PLAINS    CLOUDY    81  65  58 CALM      29.93R
ROLLA          CLEAR     74  70  87 CALM      29.89R
OSAGE BEACH    CLEAR     78  70  76 CALM      29.90R
BRANSON        MOCLDY    79  66  65 CALM      29.94R

......SURROUNDING SGF CWA......

CITY           SKY/WX    TMP DP  RH WIND       PRES   REMARKS
CHANUTE        CLOUDY    82  72  71 SE3       29.90R
PARSONS        PTCLDY    79  74  84 CALM      29.92R
COFFEYVILLE    MOCLDY    85  71  63 NE3       29.90R HAZE    HX  90
EMPORIA        PTCLDY    80  73  79 S5        29.92R
GROVE OK       CLOUDY    81  72  74 CALM      29.92R
ROGERS AR      CLOUDY    78  69  73 SE5       29.96R
SILOAM SPRINGS CLOUDY    73  66  78 SE3       29.95R
HARRISON AR    CLOUDY    78  70  76 W3        29.95R
NEAR YELLVILLE MOCLDY    82  66  57 CALM      29.89R

......KANSAS AND MISSOURI......

CITY           SKY/WX    TMP DP  RH WIND       PRES   REMARKS
KANSAS CTY INT MOCLDY    82  75  79 N8        29.90R
DOWNTOWN KC    PTCLDY    87  75  67 N5        29.87R HX  96
COLUMBIA       CLEAR     81  72  74 W5        29.88R
SEDALIA        PTCLDY    80  76  87 S3        29.90R
ST JOSEPH      CLEAR     79  74  84 N8        29.90R
ST LOUIS       PTCLDY    88  69  53 SW8       29.86R HX  92
SPIRIT OF STL  CLEAR     78  74  87 SW3       29.85R
KIRKSVILLE     PTCLDY    78  64  61 N6        29.90R
WICHITA        PTCLDY    86  69  56 E7        29.92R HX  90
TOPEKA         PTCLDY    85  78  80 CALM      29.89R HX  96
OLATHE         PTCLDY    84  76  76 CALM      29.90R HX  93

......TENNESSEE......

CITY           SKY/WX    TMP DP  RH WIND       PRES   REMARKS
MEMPHIS        LGT RAIN  76  75  97 CALM      29.88R
NASHVILLE      CLOUDY    80  66  62 W5        29.88R

......ARKANSAS.......

CITY           SKY/WX    TMP DP  RH WIND       PRES   REMARKS
FAYETTEVILLE   CLOUDY    72  72 100 S3        29.95R
FT SMITH       LGT RAIN  77  75  93 S5        29.91R
LITTLE ROCK    CLOUDY    82  75  79 W9        29.87R

......OKLAHOMA.......

CITY           SKY/WX    TMP DP  RH WIND       PRES   REMARKS
TULSA          CLOUDY    83  71  67 SE7       29.89R
PONCA CITY     CLOUDY    88  66  48 E6        29.90R HX  90
MCALESTER      LGT RAIN  73  71  93 E10G16    29.89F
OKLAHOMA CITY  CLOUDY    84  65  52 E8        29.92R

......IOWA............

CITY           SKY/WX    TMP DP  RH WIND       PRES   REMARKS
DES MOINES     PTCLDY    77  60  55 N13       29.92R
QUAD CITIES    CLEAR     77  62  59 NW8       29.87R

......ILLINOIS........

CITY           SKY/WX    TMP DP  RH WIND       PRES   REMARKS
QUINCY         CLOUDY    80  65  59 N10       29.87R
CHICAGO        PTCLDY    70  64  81 W5        29.82S




USA.gov is the U.S. government's official web portal to all federal, state and local government web resources and services.